View from above orbital plane
|
View from above satellite
|
Ground track
|
The orbit data is extracted from the following two-line orbital elements,
1 39136U 13015G 21016.30616859 .00001094 00000-0 62532-4 0 9996
2 39136 64.8743 339.5006 0029362 263.5284 96.2499 15.18207634427418
Epoch (UTC): | 16 January 2021 07:20:52 |
Eccentricity: | 0.0029362 |
inclination: | 64.8743° |
perigee height: | 491 km |
apogee height: | 531 km |
right ascension of ascending node: | 339.5006° |
argument of perigee: | 263.5284° |
revolutions per day: | 15.18207634 |
mean anomaly at epoch: | 96.2499° |
orbit number at epoch: | 42741 |
The dashed part of the orbit path shows where the satellite is in the earth's shadow,
|
|